Location: Eschertshofen
(49.3064°N, 11.5756°E)
Time: 19:59:32
(UTC+00:00)

IRIDIUM 105 - Visible Passes

Search period start: 24 January 2022 00:00
Search period end: 03 February 2022 00:00
Orbit: 776 x 779 km, 86.4° (Epoch: 24 January)

Date Brightness Start Highest point End Pass type
(mag) Time Alt. Az. Time Alt. Az. Time Alt. Az.
24 Jan ? 16:59:56 10° WSW 17:03:51 21° WNW 17:07:48 10° NNW visible
25 Jan ? 16:25:17 10° SW 16:30:01 34° WNW 16:34:47 10° NNW visible
27 Jan ? 17:01:06 10° WSW 17:04:11 16° WNW 17:07:19 10° NNW visible
30 Jan ? 17:02:53 10° W 17:04:34 11° WNW 17:06:15 10° NW visible
